Location: Bruderhein
(53.8035°N, 112.9265°W)
Time: 02:48:18
(UTC+00:00)

BEESAT - Pass Details

Date: 04 April 2023
Orbit: 696 x 706 km, 98.5° (Epoch: 31 May)

Event Time Altitude Azimuth Distance (km) Brightness Sun altitude
Rises 04:04:45 0° 21° (NNE) 3,113 ? -16.2°
Reaches altitude 10° 04:07:14 10° 31° (NNE) 2,189 ? -16.5°
Maximum altitude 04:11:34 33° 96° (E) 1,180 ? -17.0°
Enters shadow 04:12:25 31° 117° (ESE) 1,231 ? -17.1°
